Weather History for Salt Lake City, UT

Change the Weather History Date:

Sunday, September 28, 2014

  Actual Average Record
Temperature  
Mean Temperature 61 °F 60 °F  
Max Temperature 69 °F 73 °F 91 °F (1994)
Min Temperature 52 °F 48 °F 31 °F (1936)
Degree Days  
Heating Degree Days 4 6  
Month to date heating degree days 17 72  
Since 1 July heating degree days 18 77  
Cooling Degree Days 0 1  
Month to date cooling degree days 189 114  
Year to date cooling degree days 1242 1150  
Growing Degree Days 11 (Base 50)    
Moisture  
Dew Point 47 °F    
Average Humidity 60    
Maximum Humidity 83    
Minimum Humidity 37    
Precipitation  
Precipitation 0.14 in 0.04 in 0.96 in (1982)
Month to date precipitation 2.28 1.11  
Year to date precipitation 12.22 11.62  
Snow  
Snow 0.00 in 0.00 in - ()
Month to date snowfall 0.0 0.0  
Since 1 July snowfall 0.0 0.0  
Snow Depth 0.00 in    
Sea Level Pressure  
Sea Level Pressure 29.85 in    
Wind  
Wind Speed 7 mph (East)    
Max Wind Speed 22 mph    
Max Gust Speed 28 mph    
Visibility 10 miles    
Events Rain , Thunderstorm    
T = Trace of Precipitation, MM = Missing Value Source: NWS Daily Summary

Daily Weather History Graph

Daily Weather History Graph

Search for Another Location

Airport:

Trip Planner

Search our weather history database for the weather conditions in past years. The results will help you decide how hot, cold, wet, or windy it might be!

Date:

Astronomy

Sep. 28, 2014 Rise Set
Actual Time 7:21 AM MDT 7:14 PM MDT
Civil Twilight 6:54 AM MDT 7:42 PM MDT
Nautical Twilight 6:22 AM MDT 8:13 PM MDT
Astronomical Twilight 5:50 AM MDT 8:45 PM MDT
Moon 11:40 AM MDT (9/28) 10:00 PM MDT (9/28)
Length of Visible Light 12h 47m
Length of Day
11h 53m
Waxing Crescent, 19% of the Moon is Illuminated
Sep 28
Waxing Crescent
Oct 1
First Quarter
Oct 8
Full
Oct 15
Last Quarter
Oct 23
New

Hourly Weather History & Observations

Time (MDT) Temp. Dew Point Humidity Pressure Visibility Wind Dir Wind Speed Gust Speed Precip Events Conditions
12:00 AM 59.0 °F 45.0 °F 60% 29.87 in 10.0 mi SSE 12.7 mph - N/A   Mostly Cloudy
12:53 AM 61.0 °F 44.1 °F 54% 29.75 in 10.0 mi ESE 15.0 mph - N/A   Mostly Cloudy
1:25 AM 60.1 °F 44.1 °F 55% 29.86 in 10.0 mi ESE 10.4 mph 21.9 mph N/A   Mostly Cloudy
1:53 AM 60.1 °F 44.1 °F 55% 29.77 in 10.0 mi SE 16.1 mph 27.6 mph N/A   Mostly Cloudy
2:53 AM 59.0 °F 45.0 °F 60% 29.78 in 10.0 mi SSE 10.4 mph - N/A   Mostly Cloudy
3:53 AM 57.9 °F 45.0 °F 62% 29.79 in 10.0 mi SE 9.2 mph - N/A   Mostly Cloudy
4:53 AM 57.0 °F 45.0 °F 64% 29.79 in 10.0 mi SSE 8.1 mph - N/A   Mostly Cloudy
5:53 AM 55.0 °F 48.0 °F 77% 29.80 in 10.0 mi SE 9.2 mph - N/A   Mostly Cloudy
6:53 AM 54.0 °F 48.9 °F 83% 29.81 in 10.0 mi South 6.9 mph - N/A   Mostly Cloudy
7:53 AM 55.9 °F 48.0 °F 75% 29.82 in 10.0 mi NNE 3.5 mph - N/A   Mostly Cloudy
8:53 AM 55.9 °F 50.0 °F 80% 29.83 in 10.0 mi SE 4.6 mph - N/A   Mostly Cloudy
9:41 AM 55.9 °F 50.0 °F 80% 29.94 in 10.0 mi SE 5.8 mph - N/A Thunderstorm Thunderstorm
9:53 AM 55.9 °F 50.0 °F 80% 29.86 in 10.0 mi ESE 5.8 mph - N/A Thunderstorm Thunderstorm
9:59 AM 57.0 °F 50.0 °F 77% 29.94 in 10.0 mi ENE 3.5 mph - 0.00 in Rain Light Rain
10:53 AM 59.0 °F 48.9 °F 69% 29.86 in 10.0 mi NNW 3.5 mph - 0.00 in   Mostly Cloudy
11:53 AM 60.1 °F 46.0 °F 60% 29.84 in 10.0 mi Variable 5.8 mph - N/A   Mostly Cloudy
12:53 PM 64.0 °F 46.0 °F 52% 29.83 in 10.0 mi South 5.8 mph - N/A   Mostly Cloudy
1:53 PM 66.0 °F 45.0 °F 47% 29.81 in 10.0 mi ESE 5.8 mph - N/A   Scattered Clouds
2:13 PM 66.9 °F 44.1 °F 44% 29.92 in 10.0 mi Variable 3.5 mph - N/A Thunderstorm Thunderstorm
2:53 PM 66.9 °F 41.0 °F 39% 29.80 in 10.0 mi Variable 4.6 mph - N/A Thunderstorm Thunderstorm
3:06 PM 64.0 °F 46.0 °F 52% 29.91 in 10.0 mi WNW 15.0 mph 23.0 mph N/A   Mostly Cloudy
3:53 PM 68.0 °F 43.0 °F 40% 29.79 in 10.0 mi NW 15.0 mph - N/A   Mostly Cloudy
4:53 PM 66.9 °F 44.1 °F 44% 29.80 in 10.0 mi NNW 12.7 mph - N/A   Mostly Cloudy
5:53 PM 64.9 °F 46.0 °F 50% 29.81 in 10.0 mi NNW 13.8 mph - N/A   Mostly Cloudy
6:53 PM 63.0 °F 48.0 °F 58% 29.82 in 10.0 mi NW 9.2 mph - N/A   Mostly Cloudy
7:40 PM 61.0 °F 48.0 °F 62% 29.91 in 10.0 mi NNW 15.0 mph - N/A Thunderstorm Thunderstorm
7:53 PM 60.1 °F 48.9 °F 67% 29.84 in 9.0 mi NNE 6.9 mph - 0.00 in Rain , Thunderstorm Light Thunderstorms and Rain
8:45 PM 57.0 °F 50.0 °F 77% 29.95 in 10.0 mi NNE 3.5 mph - 0.06 in Thunderstorm Mostly Cloudy
8:53 PM 57.0 °F 48.0 °F 72% 29.87 in 10.0 mi Calm Calm - 0.06 in Thunderstorm Thunderstorm
9:04 PM 57.0 °F 46.9 °F 69% 29.96 in 10.0 mi WSW 4.6 mph - N/A   Scattered Clouds
9:53 PM 57.0 °F 46.0 °F 67% 29.89 in 10.0 mi WNW 3.5 mph - N/A   Mostly Cloudy
10:53 PM 55.0 °F 46.9 °F 74% 29.91 in 10.0 mi NW 4.6 mph - N/A   Mostly Cloudy
11:53 PM 53.1 °F 48.0 °F 83% 29.94 in 6.0 mi ESE 5.8 mph - 0.03 in Rain Heavy Rain